Home > Weather > Binghamton > Past weeks

Flag for USA Past Weather in Binghamton, New York, USA — Yesterday and Last 2 Weeks

Now
69 °F

Sunny.


Feels Like: 69 °F
Forecast: 72 / 88 °F
Wind: 7 mph from Southwest

Location: Binghamton Regional Airport

Current Time: Jul 25, 2016 at 7:58:24 AM

Latest Report: Jul 25, 2016 at 6:53 AM


Visibility: 10 mi

Pressure: 29.93 "Hg

Humidity: 73%

Dew Point: 60 °F

Location of BinghamtonLocation

Past Weather in Binghamton — Graph

°F

Binghamton Temperature Yesterday

Maximum temperature yesterday: 87 °F (at 2:53 PM)
Minimum temperature yesterday: 65 °F (at 5:53 AM)
Average temperature yesterday: 76 °F

High & Low Weather Summary for the Past Weeks

 TemperatureHumidityPressure
High91 °F (Jul 22, 2:53 PM)100% (Jul 11, 4:53 AM)30.27 "Hg (Jul 11, 4:53 AM)
Low53 °F (Jul 20, 6:53 AM)22% (Jul 21, 5:53 PM)29.78 "Hg (Jul 14, 4:53 PM)
Average72 °F64%30.02 "Hg
* Reported Jul 10 6:53 AM — Jul 25 6:53 AM, Binghamton, Weather by CustomWeather, © 2016

Note: Actual official high and low records may vary slightly from our data, if they occured in-between our weather recording intervals... More about our weather records

Advertising

Binghamton Weather History for the Previous 24 Hours

Scroll right to see more
 ConditionsComfort  
Time TempWeatherWind HumidityBarometerVisibility
6:53 AM
Mon, Jul 25
69 °FSunny.7 mph73%29.93 "Hg10 mi
5:53 AM66 °FClear.3 mph84%29.93 "Hg10 mi
4:53 AM67 °FClear.3 mph81%29.93 "Hg10 mi
3:53 AM67 °FClear.No wind79%29.93 "Hg10 mi
2:53 AM67 °FClear.No wind79%29.93 "Hg10 mi
1:53 AM69 °FPassing clouds.No wind76%29.93 "Hg10 mi
12:53 AM70 °FClear.6 mph71%29.94 "Hg10 mi
11:53 PM
Sun, Jul 24
71 °FClear.8 mph71%29.96 "Hg10 mi
10:53 PM73 °FClear.7 mph69%29.97 "Hg10 mi
9:53 PM75 °FClear.9 mph64%29.97 "Hg10 mi
8:53 PM77 °FSunny.8 mph56%29.96 "Hg10 mi
7:53 PM80 °FSunny.7 mph45%29.96 "Hg10 mi
6:53 PM82 °FSunny.7 mph38%29.95 "Hg10 mi
5:53 PM86 °FSunny.7 mph32%29.95 "Hg10 mi
4:53 PM86 °FSunny.7 mph35%29.96 "Hg10 mi
3:53 PM87 °FSunny.No wind32%29.95 "Hg10 mi
2:53 PM87 °FSunny.N/A31%29.97 "Hg10 mi
1:53 PM86 °FPassing clouds.3 mph36%29.98 "Hg10 mi
12:53 PM84 °FSunny.7 mph38%30.00 "Hg10 mi
11:53 AM82 °FSunny.6 mph44%30.02 "Hg10 mi
10:53 AM80 °FSunny.3 mph45%30.02 "Hg10 mi
9:53 AM76 °FSunny.No wind54%30.03 "Hg10 mi
8:53 AM72 °FSunny.3 mph64%30.03 "Hg10 mi
7:53 AM70 °FSunny.No wind71%30.04 "Hg10 mi
Weather by CustomWeather, © 2016

See weather overviewHow to use our weather pages